Location: ????????
(60.4333°N, 46.4710°E)
Time: 04:02:04
(UTC+00:00)

Okean O Rocket - Pass Details

Date: 25 November 2020
Orbit: 623 x 644 km, 98.2° (Epoch: 19 January)

Event Time Altitude Azimuth Distance (km) Brightness Sun altitude
Rises 14:12:28 0° 170° (S) 2,904 5.1 -14.6°
Reaches altitude 10° 14:14:40 10° 173° (S) 2,004 4.3 -14.9°
Maximum altitude 14:19:00 66° 255° (WSW) 696 2.0 -15.4°
Drops below altitude 10° 14:23:24 10° 339° (NNW) 2,031 4.3 -15.9°
Sets 14:25:38 0° 342° (NNW) 2,948 5.1 -16.2°
